Location: Saratoga Springs
(43.0831°N, 73.7850°W)
Time: 17:09:52
(UTC-04:00)

Vanguard 2 - Pass Details

Date: 21 April 2024
Orbit: 553 x 2914 km, 32.9° (Epoch: 19 May)

Event Time Altitude Azimuth Distance (km) Brightness Sun altitude
Rises 03:19:17 0° 245° (WSW) 5,894 - -25.6°
Reaches altitude 10° 03:22:53 10° 241° (WSW) 5,128 - -25.2°
Exits shadow 03:29:43 33° 227° (SW) 3,906 10.5 -24.4°
Maximum altitude 03:38:22 56° 169° (SSE) 3,265 10.4 -23.3°
Drops below altitude 10° 03:55:00 10° 97° (E) 5,476 12.4 -21.1°
Sets 03:59:00 0° 94° (E) 6,302 12.9 -20.5°
